Regional Weather Roundup
Issued by NWS

Home | Current Version | Previous Version | Graphics & Text | Print | Product List | Glossary On
Versions: 1 2 3 4 5 6 7 8 9 10 11 12 13 14 15 16 17 18 19 20 21 22 23 24 25 26 27 28 29 30 31 32 33 34 35 36 37 38 39 40 41 42 43 44 45 46 47 48 49 50
716
ASUS45 KABQ 180301
RWRNM
NEW MEXICO REGIONAL WEATHER ROUNDUP
NATIONAL WEATHER SERVICE ALBUQUERQUE NM
900 PM MDT THU AUG 17 2017

NOTE: "FAIR" MEANS FEW OR NO CLOUDS BELOW 12,000 FEET AGL WITH NO
       SIGNIFICANT WEATHER OR OBSTRUCTIONS TO VISION.

      THIS PRODUCT IS RELEASED AS TWO VERSIONS.  ONE VERSION NEAR
      THE TOP OF THE HOUR CONTAINING PRELIMINARY DATA FROM ALBUQUERQUE
      AND OTHER STATIONS.  A FINAL VERSION WITH ADDITIONAL DATA IS
      ISSUED ABOUT 10 MINUTES AFTER THE HOUR.

NMZ501-503-504-510>518-180400-
NORTHWEST PLATEAU/NORTHCENTRAL MOUNTAINS

CITY           SKY/WX    TMP DP  RH WIND       PRES   REMARKS
FARMINGTON     FAIR      76  28  17 NW6       30.16R
LOS ALAMOS     FAIR      72  35  25 W9        30.32R
SANTA FE       FAIR      76  36  23 CALM      30.23R
TAOS           FAIR      68  35  29 SW8       30.33R
ANGEL FIRE     FAIR      51  41  69 S5        30.43R

$$
NMZ402-403-502-505>509-180400-
WESTCENTRAL MOUNTAINS/SOUTHWEST MOUNTAINS

CITY           SKY/WX    TMP DP  RH WIND       PRES   REMARKS
GALLUP         FAIR      66  28  24 CALM      30.26R
GRANTS         FAIR      73  27  17 W8        30.27R
SILVER CITY    FAIR      68  40  35 W6        30.20R

$$
NMZ407-409-411-412-180400-
SOUTHERN DESERTS

CITY           SKY/WX    TMP DP  RH WIND       PRES   REMARKS
DEMING         FAIR      80  46  30 W7        30.10R
LAS CRUCES     FAIR      81  38  21 W7        30.11R
HOLLOMAN AFB   FAIR      85  42  22 CALM      30.08R
ALAMOGORDO     FAIR      77  46  33 E9        30.08R
T OR C         FAIR      86  41  20 S10       30.11R

$$
NMZ519>523-180400-
CENTRAL VALLEYS/CENTRAL HIGHLANDS

CITY           SKY/WX    TMP DP  RH WIND       PRES   REMARKS
ALBUQUERQUE    FAIR      82  31  15 SE5       30.16R
DOUBLE EAGLE   PTCLDY    72  43  35 CALM      30.20R
CLINES CORNERS FAIR      67  41  38 S8        30.30R
BELEN          NOT AVBL
SOCORRO        FAIR      78  35  21 NE7       30.12R

$$
NMZ524>526-539-540-180400-
SOUTHCENTRAL MOUNTAINS

CITY           SKY/WX    TMP DP  RH WIND       PRES   REMARKS
RUIDOSO        FAIR      68  48  49 S6        30.32R

$$
NMZ527>531-180400-
NORTHEAST HIGHLANDS/NORTHEAST PLAINS

CITY           SKY/WX    TMP DP  RH WIND       PRES   REMARKS
LAS VEGAS      MOCLDY    66  49  54 S6        30.29R
RATON          FAIR      66  51  58 N10       30.24R
CLAYTON        FAIR      67  53  61 SW10      30.14R

$$
NMZ532>537-180400-
EASTCENTRAL PLAINS

CITY           SKY/WX    TMP DP  RH WIND       PRES   REMARKS
SANTA ROSA     FAIR      80  47  31 SE10      30.11R
TUCUMCARI      FAIR      77  58  51 S8        30.06R
CANNON AFB     FAIR      74  72  96 SE8       30.14R
CLOVIS AIRPORT FAIR      73  65  75 SE8       30.14R

$$
NMZ028-029-538-180400-
SOUTHEAST PLAINS

CITY           SKY/WX    TMP DP  RH WIND       PRES   REMARKS
ROSWELL        FAIR      81  53  37 SE7       30.06R
ARTESIA        FAIR      84  59  42 SE12      30.06R
CARLSBAD       FAIR      77  65  66 SE15      30.06R
HOBBS          FAIR      79  64  61 S12       30.11R


$$




USA.gov is the U.S. government's official web portal to all federal, state and local government web resources and services.